Flag for Mexico Weather past 2 weeks in Cozumel, Quintana Roo, Mexico

Now
77 °F

Broken clouds.


Feels Like: 78 °F
Forecast: 76 / 82 °F
Wind: 15 mph from Southeast

Location: Cozumel Civ / Mil

Current Time: Dec 22, 2014 at 10:44:58 AM

Latest Report: Dec 22, 2014 at 9:49 AM


Visibility: 8 mi

Pressure: 29.97 "Hg

Humidity: 89%

Dew point: 73 °F

Location of CozumelLocation

Historic Weather in Cozumel — Graph

°F

Cozumel temperature yesterday

Maximum temperature yesterday: 79 °F (at 1:48 PM)
Minimum temperature yesterday: 66 °F (at 11:09 PM)
Average temperature yesterday: 72 °F

Past Weeks' High & Low Weather Summary

 TemperatureHumidityPressure
High81 °F (Dec 10, 2:48 PM)100% (Dec 7, 4:53 PM)30.23 "Hg (Dec 7, 4:53 PM)
Low52 °F (Dec 15, 4:53 AM)51% (Dec 10, 2:48 PM)29.89 "Hg (Dec 10, 8:49 AM)
Average70 °F84%30.06 "Hg
* Reported Dec 7 9:49 AM — Dec 22 9:49 AM, Cozumel, Weather by CustomWeather, © 2014

Note: Actual official high and low records may vary slightly from our data, if they occured in-between our weather recording intervals... More about our weather records

Advertising

Cozumel weather history for previous 24 hours

 ConditionsComfort  
Time TempWeatherWind HumidityBarometerVisibility
9:49 AM
Dec 22
77 °FBroken clouds.15 mph89%29.97 "Hg8 mi
8:41 AM75 °FBroken clouds.12 mph94%29.99 "Hg8 mi
7:46 AM72 °FPartly sunny.3 mph100%29.96 "Hg8 mi
6:45 AM66 °FPassing clouds.No wind100%29.95 "Hg7 mi
5:42 AM66 °FPassing clouds.No wind100%29.91 "Hg7 mi
4:40 AM66 °FPassing clouds.3 mph100%29.93 "Hg7 mi
3:25 AM64 °FPassing clouds.5 mph100%29.94 "Hg7 mi
1:40 AM66 °FPassing clouds.No wind94%29.94 "Hg7 mi
12:41 AM66 °FPassing clouds.No wind100%29.95 "Hg7 mi
11:09 PM
Dec 21
66 °FPassing clouds.No wind100%29.97 "Hg7 mi
9:43 PM68 °FPassing clouds.No wind100%29.99 "Hg7 mi
8:45 PM70 °FPassing clouds.No wind100%30.01 "Hg7 mi
7:45 PM70 °FPassing clouds.5 mph100%29.97 "Hg7 mi
6:40 PM70 °FPassing clouds.5 mph100%29.96 "Hg7 mi
5:50 PM72 °FPassing clouds.No wind100%29.93 "Hg8 mi
4:46 PM73 °FScattered clouds.7 mph100%29.94 "Hg8 mi
3:42 PM77 °FScattered clouds.5 mph89%29.94 "Hg8 mi
2:42 PM79 °FScattered clouds.7 mph84%29.96 "Hg8 mi
1:48 PM79 °FBroken clouds.5 mph84%29.95 "Hg8 mi
12:42 PM75 °FPartly sunny.5 mph100%29.97 "Hg8 mi
11:40 AM75 °FPartly sunny.No wind100%29.98 "Hg8 mi
10:42 AM77 °FScattered clouds.5 mph94%30.02 "Hg8 mi
Weather by CustomWeather, © 2014

See weather overviewHow to use our weather pages